| time (UTC) | temp F | wind direction | speed MPH | gust MPH | rain 1hr in | rain 24hr in | rain mn in | humidity % | barometer mb |
| 20260510203904 | 84 | 51 | 2.0 | 2.0 | 0.00 | 0.00 | 0.00 | 46 | 1015.5 |
| 20260510203402 | 84 | 197 | 2.0 | 3.0 | 0.00 | 0.00 | 0.00 | 44 | 1015.6 |
| 20260510202856 | 85 | 119 | 0.0 | 1.0 | 0.00 | 0.00 | 0.00 | 44 | 1015.5 |
| 20260510202352 | 84 | 129 | 1.0 | 1.0 | 0.00 | 0.00 | 0.00 | 48 | 1015.6 |
| 20260510201849 | 83 | 154 | 0.0 | 1.0 | 0.00 | 0.00 | 0.00 | 46 | 1015.6 |
| 20260510201346 | 84 | 156 | 1.0 | 1.0 | 0.00 | 0.00 | 0.00 | 46 | 1015.8 |
| 20260510200843 | 84 | 148 | 2.0 | 2.0 | 0.00 | 0.00 | 0.00 | 45 | 1016.0 |
| 20260510200342 | 83 | 152 | 0.0 | 1.0 | 0.00 | 0.00 | 0.00 | 45 | 1015.8 |
| 20260510195836 | 84 | 168 | 1.0 | 1.0 | 0.00 | 0.00 | 0.00 | 44 | 1016.2 |
| 20260510195333 | 84 | 287 | 3.0 | 3.0 | 0.00 | 0.00 | 0.00 | 47 | 1016.1 |
| 20260510194828 | 84 | 163 | 1.0 | 2.0 | 0.00 | 0.00 | 0.00 | 47 | 1015.8 |
| 20260510194325 | 82 | 146 | 0.0 | 1.0 | 0.00 | 0.00 | 0.00 | 47 | 1016.0 |
| 20260510193820 | 83 | 94 | 1.0 | 2.0 | 0.00 | 0.00 | 0.00 | 46 | 1016.0 |
| 20260510193315 | 84 | 268 | 1.0 | 2.0 | 0.00 | 0.00 | 0.00 | 49 | 1016.1 |
| 20260510192812 | 83 | 168 | 1.0 | 2.0 | 0.00 | 0.00 | 0.00 | 49 | 1016.1 |
| 20260510192307 | 83 | 148 | 0.0 | 0.0 | 0.00 | 0.00 | 0.00 | 48 | 1016.1 |
| 20260510191803 | 83 | 144 | 1.0 | 1.0 | 0.00 | 0.00 | 0.00 | 50 | 1016.2 |
| 20260510191259 | 83 | 145 | 1.0 | 1.0 | 0.00 | 0.00 | 0.00 | 50 | 1016.2 |
| 20260510190758 | 82 | 120 | 1.0 | 1.0 | 0.00 | 0.00 | 0.00 | 48 | 1016.2 |
| 20260510190254 | 82 | 159 | 1.0 | 1.0 | 0.00 | 0.00 | 0.00 | 49 | 1016.2 |
| 20260510185750 | 80 | 142 | 0.0 | 1.0 | 0.00 | 0.00 | 0.00 | 52 | 1016.2 |
| 20260510185249 | 80 | 138 | 0.0 | 0.0 | 0.00 | 0.00 | 0.00 | 52 | 1016.2 |
| 20260510184745 | 81 | 133 | 1.0 | 1.0 | 0.00 | 0.00 | 0.00 | 52 | 1016.5 |
| 20260510184242 | 80 | 108 | 1.0 | 2.0 | 0.00 | 0.00 | 0.00 | 50 | 1016.6 |
| 20260510183737 | 80 | 333 | 3.0 | 3.0 | 0.00 | 0.00 | 0.00 | 51 | 1016.3 |
| 20260510183232 | 80 | 135 | 1.0 | 1.0 | 0.00 | 0.00 | 0.00 | 51 | 1016.7 |
| 20260510182729 | 80 | 177 | 2.0 | 2.0 | 0.00 | 0.00 | 0.00 | 52 | 1016.8 |
| 20260510182224 | 79 | 102 | 2.0 | 2.0 | 0.00 | 0.00 | 0.00 | 55 | 1016.6 |
| 20260510181721 | 78 | 143 | 1.0 | 1.0 | 0.00 | 0.00 | 0.00 | 57 | 1016.7 |
| 20260510181219 | 78 | 144 | 0.0 | 1.0 | 0.00 | 0.00 | 0.00 | 59 | 1016.6 |
| 20260510180714 | 78 | 124 | 1.0 | 1.0 | 0.00 | 0.00 | 0.00 | 56 | 1016.7 |
| 20260510180212 | 78 | 123 | 0.0 | 1.0 | 0.00 | 0.00 | 0.00 | 59 | 1016.9 |
| 20260510175708 | 79 | 124 | 1.0 | 1.0 | 0.00 | 0.00 | 0.00 | 53 | 1017.0 |
| 20260510175204 | 81 | 114 | 0.0 | 0.0 | 0.00 | 0.00 | 0.00 | 52 | 1016.8 |
| 20260510174701 | 82 | 160 | 2.0 | 2.0 | 0.00 | 0.00 | 0.00 | 52 | 1017.2 |
| 20260510174159 | 81 | 135 | 0.0 | 0.0 | 0.00 | 0.00 | 0.00 | 56 | 1017.1 |
| 20260510173654 | 80 | 108 | 2.0 | 2.0 | 0.00 | 0.00 | 0.00 | 56 | 1017.0 |
| 20260510173151 | 79 | 140 | 0.0 | 0.0 | 0.00 | 0.00 | 0.00 | 53 | 1017.2 |
| 20260510172646 | 79 | 193 | 1.0 | 2.0 | 0.00 | 0.00 | 0.00 | 61 | 1017.1 |
| 20260510172143 | 78 | 79 | 1.0 | 2.0 | 0.00 | 0.00 | 0.00 | 60 | 1017.2 |
| 20260510171639 | 78 | 146 | 1.0 | 1.0 | 0.00 | 0.00 | 0.00 | 61 | 1017.3 |
| 20260510171137 | 78 | 132 | 1.0 | 1.0 | 0.00 | 0.00 | 0.00 | 61 | 1017.2 |
| 20260510170633 | 79 | 143 | 0.0 | 1.0 | 0.00 | 0.00 | 0.00 | 63 | 1017.1 |
| 20260510170130 | 78 | 135 | 0.0 | 0.0 | 0.00 | 0.00 | 0.00 | 62 | 1017.2 |
| 20260510165625 | 78 | 130 | 2.0 | 3.0 | 0.00 | 0.00 | 0.00 | 64 | 1017.2 |
| 20260510165121 | 79 | 165 | 2.0 | 2.0 | 0.00 | 0.00 | 0.00 | 65 | 1017.2 |
| 20260510164619 | 79 | 124 | 1.0 | 2.0 | 0.00 | 0.00 | 0.00 | 63 | 1017.4 |
| 20260510164115 | 79 | 84 | 2.0 | 2.0 | 0.00 | 0.00 | 0.00 | 61 | 1017.4 |
| 20260510163611 | 79 | 166 | 2.0 | 3.0 | 0.00 | 0.00 | 0.00 | 64 | 1017.4 |
| 20260510163107 | 78 | 139 | 1.0 | 1.0 | 0.00 | 0.00 | 0.00 | 64 | 1017.5 |
| 20260510162602 | 78 | 157 | 1.0 | 1.0 | 0.00 | 0.00 | 0.00 | 67 | 1017.4 |
| 20260510162059 | 77 | 129 | 1.0 | 1.0 | 0.00 | 0.00 | 0.00 | 67 | 1017.5 |
| 20260510161554 | 77 | 109 | 1.0 | 1.0 | 0.00 | 0.00 | 0.00 | 68 | 1017.5 |
| 20260510161052 | 77 | 98 | 0.0 | 1.0 | 0.00 | 0.00 | 0.00 | 72 | 1017.5 |
| 20260510160549 | 76 | 138 | 1.0 | 1.0 | 0.00 | 0.00 | 0.00 | 73 | 1017.4 |
| 20260510160048 | 75 | 140 | 0.0 | 0.0 | 0.00 | 0.00 | 0.00 | 76 | 1017.6 |
| 20260510155545 | 75 | 141 | 0.0 | 0.0 | 0.00 | 0.00 | 0.00 | 78 | 1017.4 |
| 20260510155041 | 74 | 156 | 1.0 | 2.0 | 0.00 | 0.00 | 0.00 | 77 | 1017.6 |
| 20260510154537 | 74 | 146 | 1.0 | 1.0 | 0.00 | 0.00 | 0.00 | 78 | 1017.3 |
| 20260510154032 | 74 | 112 | 0.0 | 0.0 | 0.00 | 0.00 | 0.00 | 79 | 1017.2 |
| 20260510153527 | 74 | 123 | 1.0 | 1.0 | 0.00 | 0.00 | 0.00 | 78 | 1017.3 |
| 20260510153025 | 73 | 117 | 1.0 | 1.0 | 0.00 | 0.00 | 0.00 | 78 | 1017.3 |
| 20260510152522 | 71 | 143 | 0.0 | 1.0 | 0.00 | 0.00 | 0.00 | 84 | 1017.2 |
| 20260510152018 | 70 | 139 | 0.0 | 1.0 | 0.00 | 0.00 | 0.00 | 88 | 1017.3 |
| 20260510151515 | 69 | 129 | 1.0 | 1.0 | 0.00 | 0.00 | 0.00 | 88 | 1017.2 |
| 20260510151012 | 69 | 132 | 2.0 | 2.0 | 0.00 | 0.00 | 0.00 | 87 | 1017.4 |
| 20260510150507 | 69 | 128 | 0.0 | 0.0 | 0.00 | 0.00 | 0.00 | 88 | 1017.2 |
| 20260510150003 | 68 | 134 | 0.0 | 0.0 | 0.00 | 0.00 | 0.00 | 92 | 1017.3 |
| 20260510145500 | 68 | 141 | 0.0 | 0.0 | 0.00 | 0.00 | 0.00 | 92 | 1017.2 |
| 20260510144956 | 67 | 136 | 0.0 | 1.0 | 0.00 | 0.00 | 0.00 | 93 | 1017.2 |
| 20260510144453 | 67 | 126 | 1.0 | 1.0 | 0.00 | 0.00 | 0.00 | 93 | 1017.4 |
| 20260510143949 | 67 | 124 | 0.0 | 1.0 | 0.00 | 0.00 | 0.00 | 93 | 1017.3 |
| 20260510143445 | 67 | 144 | 1.0 | 2.0 | 0.00 | 0.00 | 0.00 | 94 | 1017.3 |
| 20260510142942 | 66 | 130 | 0.0 | 0.0 | 0.00 | 0.00 | 0.00 | 96 | 1017.1 |
| 20260510142438 | 66 | 141 | 0.0 | 0.0 | 0.00 | 0.00 | 0.00 | 98 | 1017.2 |
| 20260510141935 | 66 | 137 | 0.0 | 0.0 | 0.00 | 0.00 | 0.00 | 98 | 1017.2 |
| 20260510141432 | 65 | 158 | 0.0 | 1.0 | 0.00 | 0.00 | 0.00 | 99 | 1017.3 |
| 20260510140929 | 65 | 139 | 0.0 | 0.0 | 0.00 | 0.00 | 0.00 | 98 | 1017.4 |
| 20260510140426 | 65 | 142 | 0.0 | 0.0 | 0.00 | 0.00 | 0.00 | 99 | 1017.3 |
| 20260510135924 | 65 | 137 | 1.0 | 1.0 | 0.00 | 0.00 | 0.00 | 98 | 1017.2 |
| 20260510135421 | 65 | 135 | 0.0 | 0.0 | 0.00 | 0.00 | 0.00 | 99 | 1017.3 |
| 20260510134918 | 64 | 131 | 0.0 | 0.0 | 0.00 | 0.00 | 0.00 | 99 | 1017.0 |
| 20260510134415 | 64 | 123 | 0.0 | 0.0 | 0.00 | 0.00 | 0.00 | 99 | 1017.2 |
| 20260510133911 | 64 | 99 | 1.0 | 1.0 | 0.00 | 0.00 | 0.00 | 99 | 1016.9 |
| 20260510133407 | 64 | 129 | 1.0 | 1.0 | 0.00 | 0.00 | 0.00 | 99 | 1016.8 |
| 20260510132903 | 64 | 128 | 0.0 | 0.0 | 0.00 | 0.00 | 0.00 | 99 | 1016.8 |
| 20260510132401 | 64 | 126 | 0.0 | 0.0 | 0.00 | 0.00 | 0.00 | 99 | 1016.9 |
| 20260510131857 | 64 | 146 | 0.0 | 0.0 | 0.00 | 0.00 | 0.00 | 99 | 1016.8 |
| 20260510131355 | 63 | 141 | 0.0 | 0.0 | 0.00 | 0.00 | 0.00 | 99 | 1016.9 |
| 20260510130851 | 63 | 141 | 1.0 | 1.0 | 0.00 | 0.00 | 0.00 | 99 | 1016.9 |
| 20260510130349 | 63 | 155 | 0.0 | 0.0 | 0.00 | 0.00 | 0.00 | 99 | 1016.9 |
| 20260510125845 | 63 | 132 | 0.0 | 0.0 | 0.00 | 0.00 | 0.00 | 99 | 1016.8 |
| 20260510125341 | 62 | 132 | 0.0 | 0.0 | 0.00 | 0.00 | 0.00 | 99 | 1016.9 |
| 20260510124838 | 63 | 144 | 0.0 | 0.0 | 0.00 | 0.00 | 0.00 | 99 | 1016.7 |
| 20260510124335 | 63 | 132 | 0.0 | 0.0 | 0.00 | 0.00 | 0.00 | 99 | 1016.6 |
| 20260510123831 | 62 | 139 | 0.0 | 0.0 | 0.00 | 0.00 | 0.00 | 99 | 1016.1 |
| 20260510123326 | 62 | 141 | 0.0 | 0.0 | 0.00 | 0.00 | 0.00 | 99 | 1016.1 |
| 20260510122823 | 62 | 138 | 0.0 | 0.0 | 0.00 | 0.00 | 0.00 | 99 | 1016.0 |
| 20260510122319 | 62 | 136 | 0.0 | 0.0 | 0.00 | 0.00 | 0.00 | 99 | 1016.2 |
| 20260510121816 | 61 | 134 | 0.0 | 0.0 | 0.00 | 0.00 | 0.00 | 99 | 1015.9 |
| 20260510121314 | 61 | 137 | 0.0 | 0.0 | 0.00 | 0.00 | 0.00 | 99 | 1016.2 |
| 20260510120810 | 61 | 135 | 0.0 | 1.0 | 0.00 | 0.00 | 0.00 | 99 | 1016.0 |
| 20260510120307 | 61 | 139 | 0.0 | 0.0 | 0.00 | 0.00 | 0.00 | 99 | 1016.1 |
| 20260510115803 | 61 | 140 | 0.0 | 0.0 | 0.00 | 0.00 | 0.00 | 99 | 1016.2 |
| 20260510115301 | 61 | 143 | 0.0 | 0.0 | 0.00 | 0.00 | 0.00 | 99 | 1016.0 |
| 20260510114755 | 61 | 139 | 0.0 | 0.0 | 0.00 | 0.00 | 0.00 | 99 | 1016.0 |
| 20260510114253 | 60 | 136 | 0.0 | 0.0 | 0.00 | 0.00 | 0.00 | 99 | 1015.6 |
| 20260510113748 | 60 | 135 | 0.0 | 0.0 | 0.00 | 0.00 | 0.00 | 99 | 1015.9 |
| 20260510113246 | 60 | 132 | 0.0 | 0.0 | 0.00 | 0.00 | 0.00 | 99 | 1015.7 |
| 20260510112742 | 60 | 130 | 0.0 | 0.0 | 0.00 | 0.00 | 0.00 | 99 | 1015.4 |
| 20260510112239 | 60 | 134 | 0.0 | 0.0 | 0.00 | 0.00 | 0.00 | 99 | 1015.4 |
| 20260510111734 | 60 | 120 | 0.0 | 0.0 | 0.00 | 0.00 | 0.00 | 99 | 1015.3 |
| 20260510111232 | 60 | 139 | 0.0 | 0.0 | 0.00 | 0.00 | 0.00 | 99 | 1015.5 |
| 20260510110731 | 60 | 136 | 0.0 | 0.0 | 0.00 | 0.00 | 0.00 | 99 | 1015.1 |
| 20260510110230 | 60 | 134 | 0.0 | 0.0 | 0.00 | 0.00 | 0.00 | 99 | 1015.1 |
| 20260510105729 | 60 | 136 | 0.0 | 0.0 | 0.00 | 0.00 | 0.00 | 99 | 1015.0 |
| 20260510105224 | 61 | 141 | 0.0 | 0.0 | 0.00 | 0.00 | 0.00 | 99 | 1015.2 |
| 20260510104721 | 61 | 137 | 0.0 | 0.0 | 0.00 | 0.00 | 0.00 | 99 | 1014.9 |
| 20260510104218 | 61 | 136 | 0.0 | 0.0 | 0.00 | 0.00 | 0.00 | 99 | 1014.9 |
| 20260510103714 | 61 | 133 | 0.0 | 0.0 | 0.00 | 0.00 | 0.00 | 99 | 1014.6 |
| 20260510103212 | 61 | 136 | 0.0 | 0.0 | 0.00 | 0.00 | 0.00 | 99 | 1014.5 |
| 20260510102711 | 61 | 136 | 0.0 | 0.0 | 0.00 | 0.00 | 0.00 | 99 | 1014.6 |
| 20260510102207 | 61 | 137 | 0.0 | 0.0 | 0.00 | 0.00 | 0.00 | 99 | 1014.5 |
| 20260510101705 | 61 | 135 | 0.0 | 0.0 | 0.00 | 0.00 | 0.00 | 99 | 1014.4 |
| 20260510101203 | 61 | 134 | 0.0 | 0.0 | 0.00 | 0.00 | 0.00 | 99 | 1014.5 |
| 20260510100659 | 61 | 135 | 0.0 | 0.0 | 0.00 | 0.00 | 0.00 | 99 | 1014.4 |
| 20260510100157 | 61 | 136 | 0.0 | 0.0 | 0.00 | 0.00 | 0.00 | 99 | 1014.4 |
| 20260510095652 | 61 | 136 | 0.0 | 0.0 | 0.00 | 0.00 | 0.00 | 99 | 1014.5 |
| 20260510095147 | 61 | 132 | 1.0 | 1.0 | 0.00 | 0.00 | 0.00 | 99 | 1014.3 |
| 20260510094646 | 61 | 141 | 0.0 | 0.0 | 0.00 | 0.00 | 0.00 | 99 | 1014.1 |
| 20260510094142 | 61 | 135 | 0.0 | 0.0 | 0.00 | 0.00 | 0.00 | 99 | 1014.2 |
| 20260510093638 | 61 | 135 | 0.0 | 0.0 | 0.00 | 0.00 | 0.00 | 99 | 1014.1 |
| 20260510093136 | 61 | 136 | 0.0 | 0.0 | 0.00 | 0.00 | 0.00 | 99 | 1014.1 |
| 20260510092632 | 61 | 136 | 0.0 | 0.0 | 0.00 | 0.00 | 0.00 | 99 | 1014.1 |
| 20260510092127 | 61 | 138 | 0.0 | 0.0 | 0.00 | 0.00 | 0.00 | 99 | 1014.1 |
| 20260510091623 | 61 | 138 | 0.0 | 0.0 | 0.00 | 0.00 | 0.00 | 99 | 1014.1 |
| 20260510091120 | 61 | 138 | 0.0 | 0.0 | 0.00 | 0.00 | 0.00 | 99 | 1014.2 |
| 20260510090616 | 60 | 136 | 0.0 | 0.0 | 0.00 | 0.00 | 0.00 | 99 | 1014.2 |
| 20260510090112 | 60 | 135 | 0.0 | 0.0 | 0.00 | 0.00 | 0.00 | 99 | 1014.3 |
| 20260510085607 | 60 | 134 | 0.0 | 0.0 | 0.00 | 0.00 | 0.00 | 99 | 1014.0 |
| 20260510085103 | 60 | 131 | 0.0 | 0.0 | 0.00 | 0.00 | 0.00 | 99 | 1014.1 |
| 20260510084600 | 59 | 136 | 0.0 | 0.0 | 0.00 | 0.00 | 0.00 | 99 | 1013.9 |
| 20260510084057 | 59 | 136 | 0.0 | 0.0 | 0.00 | 0.00 | 0.00 | 99 | 1013.8 |
| 20260510083553 | 58 | 136 | 0.0 | 0.0 | 0.00 | 0.00 | 0.00 | 99 | 1013.8 |
| 20260510083049 | 58 | 136 | 0.0 | 0.0 | 0.00 | 0.00 | 0.00 | 99 | 1013.8 |
| 20260510082547 | 58 | 136 | 0.0 | 0.0 | 0.00 | 0.00 | 0.00 | 99 | 1013.8 |
| 20260510082042 | 58 | 136 | 0.0 | 0.0 | 0.00 | 0.00 | 0.00 | 99 | 1013.8 |
| 20260510081537 | 58 | 136 | 0.0 | 0.0 | 0.00 | 0.00 | 0.00 | 99 | 1013.7 |
| 20260510081033 | 58 | 135 | 0.0 | 0.0 | 0.00 | 0.00 | 0.00 | 98 | 1013.6 |
| 20260510080532 | 58 | 132 | 0.0 | 0.0 | 0.00 | 0.00 | 0.00 | 98 | 1013.6 |
| 20260510080029 | 58 | 133 | 0.0 | 0.0 | 0.00 | 0.00 | 0.00 | 98 | 1013.4 |
| 20260510075526 | 58 | 133 | 0.0 | 0.0 | 0.00 | 0.00 | 0.00 | 98 | 1013.3 |
| 20260510075023 | 58 | 133 | 0.0 | 0.0 | 0.00 | 0.00 | 0.00 | 98 | 1013.4 |
| 20260510074521 | 58 | 134 | 0.0 | 0.0 | 0.00 | 0.00 | 0.00 | 98 | 1013.2 |
| 20260510074016 | 59 | 137 | 0.0 | 0.0 | 0.00 | 0.00 | 0.00 | 98 | 1013.2 |
| 20260510073512 | 59 | 137 | 0.0 | 0.0 | 0.00 | 0.00 | 0.00 | 98 | 1013.2 |
| 20260510073009 | 59 | 134 | 0.0 | 0.0 | 0.00 | 0.00 | 0.00 | 98 | 1013.1 |
| 20260510072506 | 59 | 135 | 0.0 | 0.0 | 0.00 | 0.00 | 0.00 | 98 | 1013.2 |
| 20260510072001 | 59 | 134 | 0.0 | 0.0 | 0.00 | 0.00 | 0.00 | 98 | 1013.2 |
| 20260510071458 | 59 | 133 | 0.0 | 0.0 | 0.00 | 0.00 | 0.00 | 98 | 1013.2 |
| 20260510070956 | 59 | 140 | 0.0 | 0.0 | 0.00 | 0.00 | 0.00 | 98 | 1013.1 |
| 20260510070453 | 59 | 140 | 0.0 | 0.0 | 0.00 | 0.00 | 0.00 | 98 | 1013.2 |
| 20260510065948 | 60 | 141 | 0.0 | 0.0 | 0.00 | 0.00 | 0.00 | 98 | 1013.2 |
| 20260510065446 | 60 | 141 | 0.0 | 0.0 | 0.00 | 0.00 | 0.00 | 98 | 1013.1 |
| 20260510064941 | 60 | 142 | 0.0 | 0.0 | 0.00 | 0.00 | 0.00 | 98 | 1013.3 |
| 20260510064439 | 60 | 139 | 0.0 | 0.0 | 0.00 | 0.00 | 0.00 | 98 | 1013.2 |
| 20260510063936 | 60 | 140 | 0.0 | 0.0 | 0.00 | 0.00 | 0.00 | 98 | 1013.2 |
| 20260510063432 | 60 | 139 | 0.0 | 0.0 | 0.00 | 0.00 | 0.00 | 98 | 1013.2 |
| 20260510062930 | 60 | 140 | 0.0 | 0.0 | 0.00 | 0.00 | 0.00 | 98 | 1013.1 |
| 20260510062425 | 60 | 140 | 0.0 | 0.0 | 0.00 | 0.00 | 0.00 | 98 | 1013.3 |
| 20260510061921 | 60 | 140 | 0.0 | 0.0 | 0.00 | 0.00 | 0.00 | 98 | 1013.4 |
| 20260510061418 | 60 | 141 | 0.0 | 0.0 | 0.00 | 0.00 | 0.00 | 98 | 1013.4 |
| 20260510060913 | 60 | 140 | 0.0 | 0.0 | 0.00 | 0.00 | 0.00 | 98 | 1013.5 |
| 20260510060410 | 60 | 140 | 0.0 | 0.0 | 0.00 | 0.00 | 0.00 | 98 | 1013.5 |
| 20260510055907 | 60 | 141 | 0.0 | 0.0 | 0.00 | 0.00 | 0.00 | 98 | 1013.4 |
| 20260510055402 | 60 | 141 | 0.0 | 0.0 | 0.00 | 0.00 | 0.00 | 98 | 1013.2 |
| 20260510054900 | 60 | 141 | 0.0 | 0.0 | 0.00 | 0.00 | 0.00 | 98 | 1013.5 |
| 20260510054356 | 60 | 140 | 0.0 | 0.0 | 0.00 | 0.00 | 0.00 | 98 | 1013.6 |
| 20260510053851 | 60 | 140 | 0.0 | 0.0 | 0.00 | 0.00 | 0.00 | 98 | 1013.5 |
| 20260510053347 | 60 | 140 | 0.0 | 0.0 | 0.00 | 0.00 | 0.00 | 98 | 1013.4 |
| 20260510052844 | 60 | 140 | 0.0 | 0.0 | 0.00 | 0.00 | 0.00 | 98 | 1013.6 |
| 20260510052339 | 60 | 140 | 0.0 | 0.0 | 0.00 | 0.00 | 0.00 | 98 | 1013.4 |
| 20260510051836 | 60 | 140 | 0.0 | 0.0 | 0.00 | 0.00 | 0.00 | 98 | 1013.5 |
| 20260510051333 | 60 | 140 | 0.0 | 0.0 | 0.00 | 0.00 | 0.00 | 98 | 1013.5 |
| 20260510050830 | 60 | 140 | 0.0 | 0.0 | 0.00 | 0.00 | 0.00 | 97 | 1013.7 |
| 20260510050326 | 61 | 140 | 0.0 | 0.0 | 0.00 | 0.00 | 0.00 | 97 | 1013.5 |
| 20260510045824 | 60 | 140 | 0.0 | 0.0 | 0.00 | 0.00 | 0.00 | 98 | 1013.6 |
| 20260510045320 | 60 | 140 | 0.0 | 0.0 | 0.00 | 0.00 | 0.00 | 97 | 1013.6 |
| 20260510044817 | 60 | 140 | 0.0 | 0.0 | 0.00 | 0.00 | 0.00 | 97 | 1013.4 |
| 20260510044313 | 61 | 140 | 0.0 | 0.0 | 0.00 | 0.00 | 0.00 | 97 | 1013.4 |
| 20260510043810 | 61 | 140 | 0.0 | 0.0 | 0.00 | 0.00 | 0.00 | 97 | 1013.7 |
| 20260510043306 | 61 | 140 | 0.0 | 0.0 | 0.00 | 0.00 | 0.00 | 97 | 1013.7 |
| 20260510042803 | 60 | 140 | 0.0 | 0.0 | 0.00 | 0.00 | 0.00 | 97 | 1013.6 |
| 20260510042259 | 60 | 139 | 0.0 | 0.0 | 0.00 | 0.00 | 0.00 | 97 | 1013.8 |
| 20260510041755 | 61 | 140 | 0.0 | 0.0 | 0.00 | 0.00 | 0.00 | 97 | 1013.6 |
| 20260510041254 | 61 | 140 | 0.0 | 0.0 | 0.00 | 0.00 | 0.00 | 97 | 1013.7 |
| 20260510040751 | 61 | 140 | 0.0 | 0.0 | 0.00 | 0.00 | 0.00 | 97 | 1013.9 |
| 20260510040247 | 62 | 141 | 0.0 | 0.0 | 0.00 | 0.00 | 0.00 | 97 | 1013.6 |
| 20260510035743 | 62 | 141 | 0.0 | 0.0 | 0.00 | 0.00 | 0.00 | 97 | 1013.6 |
| 20260510035238 | 62 | 140 | 0.0 | 0.0 | 0.00 | 0.00 | 0.00 | 97 | 1013.7 |
| 20260510034734 | 62 | 140 | 0.0 | 0.0 | 0.00 | 0.00 | 0.00 | 96 | 1013.8 |
| 20260510034233 | 61 | 140 | 0.0 | 0.0 | 0.00 | 0.00 | 0.00 | 96 | 1013.9 |
| 20260510033729 | 62 | 139 | 0.0 | 0.0 | 0.00 | 0.00 | 0.00 | 96 | 1013.8 |
| 20260510033227 | 62 | 140 | 0.0 | 0.0 | 0.00 | 0.00 | 0.00 | 96 | 1013.7 |
| 20260510032722 | 62 | 141 | 0.0 | 0.0 | 0.00 | 0.00 | 0.00 | 96 | 1013.7 |
| 20260510032218 | 62 | 140 | 0.0 | 0.0 | 0.00 | 0.00 | 0.00 | 96 | 1013.6 |
| 20260510031713 | 62 | 140 | 0.0 | 0.0 | 0.00 | 0.00 | 0.00 | 96 | 1013.7 |
| 20260510031210 | 62 | 140 | 0.0 | 0.0 | 0.00 | 0.00 | 0.00 | 95 | 1013.5 |
| 20260510030709 | 62 | 140 | 0.0 | 0.0 | 0.00 | 0.00 | 0.00 | 95 | 1013.7 |
| 20260510030207 | 62 | 140 | 0.0 | 0.0 | 0.00 | 0.00 | 0.00 | 95 | 1013.6 |
| 20260510025705 | 63 | 140 | 0.0 | 0.0 | 0.00 | 0.00 | 0.00 | 95 | 1013.7 |
| 20260510025201 | 63 | 140 | 0.0 | 0.0 | 0.00 | 0.00 | 0.00 | 95 | 1013.6 |
| 20260510024659 | 63 | 139 | 0.0 | 0.0 | 0.00 | 0.00 | 0.00 | 94 | 1013.4 |
| 20260510024155 | 63 | 140 | 0.0 | 0.0 | 0.00 | 0.00 | 0.00 | 95 | 1013.6 |
| 20260510023650 | 64 | 139 | 0.0 | 0.0 | 0.00 | 0.00 | 0.00 | 94 | 1013.4 |
| 20260510023148 | 64 | 139 | 0.0 | 0.0 | 0.00 | 0.00 | 0.00 | 94 | 1013.4 |
| 20260510022649 | 64 | 139 | 0.0 | 0.0 | 0.00 | 0.00 | 0.00 | 94 | 1013.1 |
| 20260510022144 | 64 | 139 | 0.0 | 0.0 | 0.00 | 0.00 | 0.00 | 94 | 1013.2 |
| 20260510021640 | 64 | 139 | 0.0 | 0.0 | 0.00 | 0.00 | 0.00 | 94 | 1013.0 |
| 20260510021137 | 64 | 139 | 0.0 | 0.0 | 0.00 | 0.00 | 0.00 | 93 | 1012.9 |
| 20260510020631 | 64 | 139 | 0.0 | 0.0 | 0.00 | 0.00 | 0.00 | 93 | 1013.0 |
| 20260510020127 | 64 | 139 | 0.0 | 0.0 | 0.00 | 0.00 | 0.00 | 93 | 1012.8 |
| 20260510015623 | 64 | 138 | 0.0 | 0.0 | 0.00 | 0.00 | 0.00 | 93 | 1012.8 |
| 20260510015119 | 64 | 139 | 0.0 | 0.0 | 0.00 | 0.00 | 0.00 | 93 | 1012.7 |
| 20260510014615 | 64 | 138 | 0.0 | 0.0 | 0.00 | 0.00 | 0.00 | 92 | 1012.4 |
| 20260510014113 | 65 | 138 | 0.0 | 0.0 | 0.00 | 0.00 | 0.00 | 91 | 1012.5 |
| 20260510013608 | 65 | 139 | 0.0 | 0.0 | 0.00 | 0.00 | 0.00 | 91 | 1012.2 |
| 20260510013104 | 66 | 140 | 0.0 | 0.0 | 0.00 | 0.00 | 0.00 | 90 | 1012.2 |
| 20260510012603 | 66 | 140 | 0.0 | 0.0 | 0.00 | 0.00 | 0.00 | 90 | 1012.3 |
| 20260510012100 | 66 | 140 | 0.0 | 0.0 | 0.00 | 0.00 | 0.00 | 89 | 1012.1 |
| 20260510011559 | 66 | 140 | 0.0 | 0.0 | 0.00 | 0.00 | 0.00 | 89 | 1011.9 |
| 20260510011055 | 67 | 140 | 0.0 | 0.0 | 0.00 | 0.00 | 0.00 | 88 | 1011.8 |
| 20260510010552 | 67 | 139 | 0.0 | 0.0 | 0.00 | 0.00 | 0.00 | 87 | 1011.5 |
| 20260510010049 | 67 | 132 | 0.0 | 0.0 | 0.00 | 0.00 | 0.00 | 87 | 1011.6 |
| 20260510005544 | 67 | 136 | 0.0 | 0.0 | 0.00 | 0.00 | 0.00 | 86 | 1012.0 |
| 20260510005042 | 68 | 137 | 0.0 | 0.0 | 0.00 | 0.00 | 0.00 | 85 | 1011.5 |
| 20260510004540 | 68 | 136 | 0.0 | 0.0 | 0.00 | 0.00 | 0.00 | 85 | 1011.3 |
| 20260510004038 | 69 | 139 | 0.0 | 0.0 | 0.00 | 0.00 | 0.00 | 84 | 1011.3 |
| 20260510003534 | 69 | 139 | 0.0 | 0.0 | 0.00 | 0.00 | 0.00 | 83 | 1011.3 |
| 20260510003035 | 70 | 138 | 0.0 | 0.0 | 0.00 | 0.00 | 0.00 | 84 | 1011.3 |
| 20260510002530 | 70 | 138 | 0.0 | 0.0 | 0.00 | 0.00 | 0.00 | 83 | 1011.1 |
| 20260510002028 | 71 | 138 | 0.0 | 0.0 | 0.00 | 0.00 | 0.00 | 83 | 1011.3 |
| 20260510001525 | 71 | 141 | 0.0 | 0.0 | 0.00 | 0.00 | 0.00 | 81 | 1011.2 |
| 20260510001023 | 71 | 141 | 0.0 | 0.0 | 0.00 | 0.00 | 0.00 | 80 | 1011.0 |
| 20260510000519 | 71 | 143 | 0.0 | 0.0 | 0.00 | 0.00 | 0.00 | 80 | 1011.1 |
| 20260510000016 | 71 | 137 | 0.0 | 0.0 | 0.00 | 0.00 | 0.00 | 81 | 1010.8 |
| 20260509235512 | 72 | 138 | 0.0 | 0.0 | 0.00 | 0.00 | 0.00 | 80 | 1011.0 |
| 20260509235009 | 72 | 138 | 0.0 | 0.0 | 0.00 | 0.00 | 0.00 | 81 | 1011.1 |
| 20260509234505 | 72 | 142 | 0.0 | 0.0 | 0.00 | 0.00 | 0.00 | 79 | 1011.1 |
| 20260509234003 | 72 | 137 | 0.0 | 0.0 | 0.00 | 0.00 | 0.00 | 81 | 1010.8 |
| 20260509233500 | 72 | 137 | 0.0 | 0.0 | 0.00 | 0.00 | 0.00 | 78 | 1010.8 |
| 20260509232956 | 72 | 137 | 0.0 | 0.0 | 0.00 | 0.00 | 0.00 | 79 | 1010.8 |
| 20260509232454 | 73 | 137 | 0.0 | 0.0 | 0.00 | 0.00 | 0.00 | 78 | 1010.7 |
| 20260509231949 | 73 | 131 | 0.0 | 0.0 | 0.00 | 0.00 | 0.00 | 76 | 1010.7 |
| 20260509231446 | 74 | 127 | 1.0 | 1.0 | 0.00 | 0.00 | 0.00 | 73 | 1010.7 |
| 20260509230945 | 75 | 139 | 0.0 | 0.0 | 0.00 | 0.00 | 0.00 | 73 | 1010.8 |
| 20260509230441 | 74 | 140 | 0.0 | 0.0 | 0.00 | 0.00 | 0.00 | 73 | 1010.9 |
| 20260509225937 | 75 | 139 | 0.0 | 0.0 | 0.00 | 0.00 | 0.00 | 73 | 1010.9 |
| 20260509225434 | 75 | 140 | 0.0 | 0.0 | 0.00 | 0.00 | 0.00 | 72 | 1010.7 |
| 20260509224930 | 75 | 141 | 0.0 | 0.0 | 0.00 | 0.00 | 0.00 | 69 | 1010.7 |
| 20260509224425 | 75 | 141 | 0.0 | 0.0 | 0.00 | 0.00 | 0.00 | 69 | 1010.6 |
| 20260509223923 | 75 | 144 | 0.0 | 0.0 | 0.00 | 0.00 | 0.00 | 71 | 1010.7 |
| 20260509223419 | 75 | 142 | 0.0 | 0.0 | 0.00 | 0.00 | 0.00 | 70 | 1010.6 |
| 20260509222916 | 76 | 141 | 0.0 | 0.0 | 0.00 | 0.00 | 0.00 | 69 | 1010.6 |
| 20260509222412 | 76 | 140 | 0.0 | 0.0 | 0.00 | 0.00 | 0.00 | 67 | 1010.6 |
| 20260509221907 | 76 | 141 | 0.0 | 0.0 | 0.00 | 0.00 | 0.00 | 66 | 1010.6 |
| 20260509221405 | 76 | 145 | 0.0 | 0.0 | 0.00 | 0.00 | 0.00 | 68 | 1010.5 |
| 20260509220900 | 76 | 151 | 0.0 | 0.0 | 0.00 | 0.00 | 0.00 | 67 | 1010.3 |
| 20260509220356 | 77 | 140 | 0.0 | 0.0 | 0.00 | 0.00 | 0.00 | 66 | 1010.3 |
| 20260509215853 | 77 | 149 | 0.0 | 0.0 | 0.00 | 0.00 | 0.00 | 67 | 1010.4 |
| 20260509215349 | 76 | 137 | 0.0 | 0.0 | 0.00 | 0.00 | 0.00 | 64 | 1010.4 |
| 20260509214847 | 76 | 146 | 0.0 | 0.0 | 0.00 | 0.00 | 0.00 | 66 | 1010.2 |
| 20260509214344 | 77 | 118 | 1.0 | 1.0 | 0.00 | 0.00 | 0.00 | 64 | 1010.3 |
| 20260509213841 | 77 | 140 | 0.0 | 0.0 | 0.00 | 0.00 | 0.00 | 66 | 1010.4 |
| 20260509213336 | 77 | 149 | 1.0 | 1.0 | 0.00 | 0.00 | 0.00 | 65 | 1010.5 |
| 20260509212834 | 77 | 139 | 0.0 | 0.0 | 0.00 | 0.00 | 0.00 | 64 | 1010.4 |
| 20260509212331 | 78 | 126 | 0.0 | 0.0 | 0.00 | 0.00 | 0.00 | 63 | 1010.3 |
| 20260509211827 | 78 | 149 | 1.0 | 1.0 | 0.00 | 0.00 | 0.00 | 63 | 1010.4 |
| 20260509211323 | 78 | 95 | 1.0 | 1.0 | 0.00 | 0.00 | 0.00 | 63 | 1010.4 |
| 20260509210820 | 77 | 148 | 0.0 | 0.0 | 0.00 | 0.00 | 0.00 | 63 | 1010.2 |
| 20260509210317 | 77 | 135 | 1.0 | 1.0 | 0.00 | 0.00 | 0.00 | 65 | 1010.3 |
| 20260509205818 | 76 | 148 | 1.0 | 1.0 | 0.00 | 0.00 | 0.00 | 64 | 1010.4 |
| 20260509205312 | 77 | 185 | 2.0 | 2.0 | 0.00 | 0.00 | 0.00 | 64 | 1010.4 |
| 20260509204808 | 77 | 134 | 0.0 | 0.0 | 0.00 | 0.00 | 0.00 | 64 | 1010.5 |